DLH15G EDDC-EHAM

Flight info

Callsign DLH15G
Flight time N/A
Altitude 40000
Route OSKAN3D OSKAN M748 BOLBO L986 SAS L980 AMSAN T281 NORKU
Aircraft A359/H-SDE2E3GHIJ3J4J5LM1ORWXY/LB1D1

Departure

Time 2026-05-07 14:15
Airport Dresden Airport (EDDC)

Arrival

Time N/A
Airport Amsterdam Airport Schiphol (EHAM)
Time Latitude Longitude Altitude Speed Heading
2026-05-07 13:44 51.12641 13.76553 756 ft 0 kts 212°
2026-05-07 14:05 51.12649 13.76560 759 ft 4 kts 218°
2026-05-07 14:05 51.12666 13.76589 754 ft 4 kts 234°
2026-05-07 14:05 51.12681 13.76615 754 ft 4 kts 225°
2026-05-07 14:06 51.12693 13.76639 753 ft 4 kts 264°
2026-05-07 14:06 51.12692 13.76660 753 ft 4 kts 314°
2026-05-07 14:06 51.12672 13.76687 754 ft 4 kts 323°
2026-05-07 14:06 51.12651 13.76713 754 ft 4 kts 314°
2026-05-07 14:07 51.12647 13.76719 754 ft 4 kts 311°
2026-05-07 14:09 51.12648 13.76718 760 ft 0 kts 311°
2026-05-07 14:10 51.12688 13.76646 756 ft 12 kts 311°
2026-05-07 14:10 51.12754 13.76528 752 ft 18 kts 311°
2026-05-07 14:10 51.12848 13.76465 750 ft 12 kts 18°
2026-05-07 14:11 51.12902 13.76534 747 ft 16 kts 43°
2026-05-07 14:11 51.13029 13.76720 746 ft 29 kts 43°
2026-05-07 14:11 51.13180 13.76930 742 ft 29 kts 40°
2026-05-07 14:11 51.13338 13.77148 736 ft 30 kts 40°
2026-05-07 14:12 51.13483 13.77345 733 ft 27 kts 40°
2026-05-07 14:12 51.13628 13.77541 728 ft 25 kts 40°
2026-05-07 14:12 51.13760 13.77722 724 ft 25 kts 41°
2026-05-07 14:12 51.13890 13.77906 721 ft 26 kts 38°
2026-05-07 14:13 51.14021 13.78085 719 ft 24 kts 41°
2026-05-07 14:13 51.14147 13.78258 719 ft 23 kts 40°
2026-05-07 14:13 51.14240 13.78369 716 ft 0 kts 18°
2026-05-07 14:13 51.14268 13.78358 716 ft 8 kts 332°
2026-05-07 14:14 51.14309 13.78281 717 ft 16 kts 311°
2026-05-07 14:14 51.14370 13.78133 717 ft 3 kts 276°
2026-05-07 14:14 51.14346 13.78029 719 ft 12 kts 241°
2026-05-07 14:14 51.14308 13.77951 722 ft 5 kts 216°
2026-05-07 14:15 51.14231 13.77858 721 ft 36 kts 219°
2026-05-07 14:15 51.13810 13.77294 733 ft 119 kts 220°
2026-05-07 14:15 51.13002 13.76186 840 ft 178 kts 222°
2026-05-07 14:15 51.12077 13.74930 1886 ft 178 kts 224°
2026-05-07 14:16 51.11143 13.73489 2502 ft 207 kts 227°
2026-05-07 14:16 51.10014 13.71750 2851 ft 241 kts 223°
2026-05-07 14:16 51.08714 13.69921 3640 ft 253 kts 222°
2026-05-07 14:16 51.07385 13.68083 4723 ft 252 kts 222°
2026-05-07 14:17 51.06023 13.66179 5385 ft 271 kts 223°
2026-05-07 14:17 51.04923 13.63692 6066 ft 285 kts 250°
2026-05-07 14:17 51.04707 13.60541 7000 ft 291 kts 272°
2026-05-07 14:17 51.05022 13.57335 7967 ft 299 kts 286°
2026-05-07 14:18 51.06093 13.54469 9013 ft 308 kts 313°
2026-05-07 14:18 51.07771 13.52293 10112 ft 315 kts 322°
2026-05-07 14:18 51.09555 13.50259 11123 ft 322 kts 322°
2026-05-07 14:18 51.11391 13.48141 12107 ft 330 kts 321°
2026-05-07 14:19 51.13256 13.45953 13106 ft 335 kts 321°
2026-05-07 14:19 51.15147 13.43716 14056 ft 341 kts 321°
2026-05-07 14:19 51.17104 13.41518 14893 ft 347 kts 326°
2026-05-07 14:19 51.19328 13.39942 15739 ft 354 kts 342°
2026-05-07 14:20 51.21756 13.39441 16581 ft 361 kts
2026-05-07 14:20 51.24248 13.40128 17457 ft 368 kts 18°
2026-05-07 14:20 51.26556 13.41949 18353 ft 373 kts 32°
2026-05-07 14:20 51.28736 13.44249 19151 ft 377 kts 34°
2026-05-07 14:21 51.30915 13.46602 19983 ft 379 kts 34°
2026-05-07 14:21 51.33120 13.48966 20830 ft 382 kts 33°
2026-05-07 14:21 51.35345 13.51338 21632 ft 386 kts 33°
2026-05-07 14:21 51.37599 13.53720 22425 ft 390 kts 33°
2026-05-07 14:22 51.39993 13.55799 23203 ft 393 kts 23°
2026-05-07 14:22 51.42607 13.57095 23953 ft 395 kts 11°
2026-05-07 14:22 51.45354 13.57475 24609 ft 398 kts 358°
2026-05-07 14:22 51.48072 13.56910 25234 ft 401 kts 346°
2026-05-07 14:23 51.50705 13.55392 25873 ft 405 kts 334°
2026-05-07 14:23 51.53097 13.52972 26506 ft 408 kts 321°
2026-05-07 14:23 51.55251 13.49968 27145 ft 412 kts 318°
2026-05-07 14:23 51.57394 13.46875 27745 ft 416 kts 318°
2026-05-07 14:24 51.59558 13.43745 28362 ft 420 kts 318°
2026-05-07 14:24 51.61744 13.40592 28984 ft 423 kts 319°
2026-05-07 14:24 51.63929 13.37449 29592 ft 427 kts 319°
2026-05-07 14:24 51.66139 13.34280 30425 ft 423 kts 319°
2026-05-07 14:25 51.68341 13.31130 31126 ft 422 kts 318°
2026-05-07 14:25 51.70547 13.27970 31710 ft 424 kts 318°
2026-05-07 14:25 51.72761 13.24792 32309 ft 425 kts 317°